Osceola Municipal, IA

12:51 AM CDT on June 25, 2017 (GMT -0500)
Osceola Municipal

Weather History for KI75 - March, 2014

Change the Weather History Date:

Saturday, March 22, 2014

  Actual Average (KCNC) Record (KCNC)
Temperature  
Mean Temperature 27 °F -  
Max Temperature 34 °F 53 °F 83 °F (1988)
Min Temperature 20 °F 29 °F 12 °F (2002)
Degree Days  
Heating Degree Days 38    
Moisture  
Dew Point 13 °F    
Average Humidity 58    
Maximum Humidity 83    
Minimum Humidity 30    
Precipitation  
Precipitation 0.00 in - - ()
Sea Level Pressure  
Sea Level Pressure 30.31 in    
Wind  
Wind Speed 15 mph (NNW)    
Max Wind Speed 21 mph    
Max Gust Speed 30 mph    
Visibility 10 miles    
Events      
Averages and records for this station are not official NWS values.
T = Trace of Precipitation, MM = Missing Value Source: NWS Daily Summary

Daily Weather History Graph

Daily Weather History Graph

Search for Another Location

Airport or City:

Trip Planner

Search our weather history database for the weather conditions in past years. The results will help you decide how hot, cold, wet, or windy it might be!

Date:

Astronomy

Mar. 22, 2014 Rise Set
Actual Time 7:14 AM CDT 7:29 PM CDT
Civil Twilight 6:47 AM CDT 7:56 PM CDT
Nautical Twilight 6:15 AM CDT 8:28 PM CDT
Astronomical Twilight 5:42 AM CDT 9:01 PM CDT
Moon 12:51 AM CDT (3/22) 10:56 AM CDT (3/22)
Length of Visible Light 13h 09m
Length of Day
12h 14m
Waning Gibbous, 65% of the Moon is Illuminated
Mar 22
Waning Gibbous
Mar 23
Last Quarter
Mar 30
New
Apr 7
First Quarter
Apr 15
Full

Hourly Weather History & Observations

Time (CDT) Temp. Windchill Dew Point Humidity Pressure Visibility Wind Dir Wind Speed Gust Speed Precip Events Conditions
12:15 AM 30.9 °F 19.1 °F 22.6 °F 71% 30.15 in 10.0 mi NNW 18.4 mph 24.2 mph N/A   Clear
12:35 AM 30.0 °F 17.5 °F 22.6 °F 74% 30.15 in 10.0 mi NW 19.6 mph 26.5 mph N/A   Clear
12:55 AM 29.3 °F 17.3 °F 23.0 °F 77% 30.16 in 10.0 mi NNW 17.3 mph 24.2 mph N/A   Clear
1:15 AM 28.9 °F 17.3 °F 23.0 °F 78% 30.16 in 10.0 mi NW 16.1 mph 20.7 mph N/A   Scattered Clouds
1:35 AM 28.2 °F 14.8 °F 22.1 °F 78% 30.17 in 10.0 mi NNW 20.7 mph 29.9 mph N/A   Scattered Clouds
1:55 AM 27.7 °F 16.6 °F 22.3 °F 80% 30.18 in 10.0 mi NNW 13.8 mph 23.0 mph N/A   Clear
2:15 AM 27.1 °F 16.9 °F 22.1 °F 81% 30.18 in 10.0 mi NNW 11.5 mph - N/A   Scattered Clouds
2:35 AM 27.1 °F 17.5 °F 22.5 °F 83% 30.18 in 10.0 mi NW 10.4 mph - N/A   Mostly Cloudy
2:55 AM 26.8 °F 15.4 °F 21.7 °F 81% 30.19 in 10.0 mi NNW 13.8 mph 17.3 mph N/A   Mostly Cloudy
3:15 AM 25.7 °F 14.0 °F 19.9 °F 79% 30.20 in 10.0 mi NW 13.8 mph - N/A   Scattered Clouds
3:35 AM 25.2 °F 13.3 °F 17.6 °F 73% 30.20 in 10.0 mi NW 13.8 mph 19.6 mph N/A   Clear
3:55 AM 24.8 °F 12.9 °F 16.3 °F 70% 30.21 in 10.0 mi NW 13.8 mph - N/A   Clear
4:15 AM 24.3 °F 13.9 °F 16.3 °F 72% 30.21 in 10.0 mi NW 10.4 mph - N/A   Clear
4:35 AM 23.9 °F 11.7 °F 16.0 °F 72% 30.22 in 10.0 mi NW 13.8 mph - N/A   Clear
4:55 AM 23.5 °F 10.3 °F 15.6 °F 72% 30.22 in 10.0 mi NW 16.1 mph 21.9 mph N/A   Clear
5:15 AM 23.2 °F 9.4 °F 14.5 °F 70% 30.23 in 10.0 mi NW 17.3 mph 20.7 mph N/A   Clear
5:35 AM 22.5 °F 10.5 °F 14.5 °F 72% 30.24 in 10.0 mi NW 12.7 mph 18.4 mph N/A   Clear
5:55 AM 21.7 °F 10.2 °F 14.9 °F 75% 30.24 in 10.0 mi NNW 11.5 mph - N/A   Clear
6:15 AM 21.2 °F 6.4 °F 13.1 °F 71% 30.24 in 10.0 mi NW 18.4 mph 24.2 mph N/A   Clear
6:35 AM 20.8 °F 8.4 °F 13.1 °F 72% 30.25 in 10.0 mi NNW 12.7 mph 17.3 mph N/A   Clear
6:55 AM 20.3 °F 7.2 °F 12.9 °F 73% 30.26 in 10.0 mi NNW 13.8 mph 21.9 mph N/A   Clear
7:15 AM 20.1 °F 7.5 °F 13.1 °F 74% 30.28 in 10.0 mi NW 12.7 mph - N/A   Clear
7:35 AM 20.3 °F 7.2 °F 13.1 °F 74% 30.28 in 10.0 mi NW 13.8 mph 19.6 mph N/A   Clear
7:55 AM 20.3 °F 6.1 °F 12.7 °F 73% 30.29 in 10.0 mi NNW 16.1 mph - N/A   Clear
8:15 AM 20.8 °F 7.3 °F 12.9 °F 71% 30.29 in 10.0 mi NNW 15.0 mph 20.7 mph N/A   Clear
8:35 AM 21.0 °F 7.1 °F 12.6 °F 70% 30.30 in 10.0 mi NNW 16.1 mph 20.7 mph N/A   Clear
8:55 AM 21.2 °F 7.8 °F 12.2 °F 68% 30.30 in 10.0 mi NNW 15.0 mph 24.2 mph N/A   Clear
9:15 AM 22.6 °F 8.7 °F 12.6 °F 65% 30.32 in 10.0 mi NNW 17.3 mph 23.0 mph N/A   Clear
9:35 AM 22.6 °F 9.2 °F 12.0 °F 64% 30.33 in 10.0 mi NW 16.1 mph - N/A   Clear
9:55 AM 24.8 °F 11.1 °F 12.2 °F 59% 30.33 in 10.0 mi NNW 18.4 mph - N/A   Clear
10:15 AM 25.5 °F 14.3 °F 11.7 °F 56% 30.33 in 10.0 mi NNW 12.7 mph 20.7 mph N/A   Clear
10:35 AM 25.5 °F 12.9 °F 11.8 °F 56% 30.33 in 10.0 mi NNW 16.1 mph 19.6 mph N/A   Clear
10:55 AM 25.7 °F 14.6 °F 11.5 °F 55% 30.34 in 10.0 mi NW 12.7 mph 21.9 mph N/A   Clear
11:15 AM 26.2 °F 13.8 °F 10.9 °F 52% 30.34 in 10.0 mi NNW 16.1 mph 19.6 mph N/A   Clear
11:35 AM 26.8 °F 15.9 °F 9.5 °F 48% 30.35 in 10.0 mi North 12.7 mph - N/A   Clear
11:55 AM 28.4 °F 18.5 °F 9.5 °F 45% 30.36 in 10.0 mi NNW 11.5 mph 19.6 mph N/A   Clear
12:15 PM 29.8 °F 20.3 °F 8.6 °F 41% 30.36 in 10.0 mi NNW 11.5 mph 21.9 mph N/A   Clear
12:55 PM 31.6 °F 22.1 °F 6.4 °F 35% 30.35 in 10.0 mi NNW 12.7 mph 17.3 mph N/A   Clear
1:15 PM 32.2 °F 23.8 °F 6.4 °F 34% 30.35 in 10.0 mi NW 10.4 mph 19.6 mph N/A   Clear
1:35 PM 32.9 °F 22.4 °F 6.1 °F 32% 30.34 in 10.0 mi NNW 16.1 mph 20.7 mph N/A   Clear
1:55 PM 34.2 °F 24.8 °F 5.4 °F 30% 30.33 in 10.0 mi North 13.8 mph 18.4 mph N/A   Clear
2:15 PM 33.8 °F 23.2 °F 4.8 °F 30% 30.33 in 10.0 mi NNW 17.3 mph 24.2 mph N/A   Clear
2:35 PM 33.1 °F 24.9 °F 5.5 °F 31% 30.34 in 10.0 mi North 10.4 mph 24.2 mph N/A   Clear
2:55 PM 33.3 °F 22.8 °F 7.5 °F 34% 30.33 in 10.0 mi NW 16.1 mph 21.9 mph N/A   Clear
3:15 PM 32.9 °F 24.1 °F 7.3 °F 34% 30.34 in 10.0 mi NNW 11.5 mph 19.6 mph N/A   Clear
3:35 PM 32.5 °F 23.7 °F 7.0 °F 34% 30.34 in 10.0 mi NNW 11.5 mph - N/A   Clear
3:55 PM 33.1 °F 23.0 °F 7.7 °F 35% 30.34 in 10.0 mi NNW 15.0 mph 18.4 mph N/A   Clear
4:15 PM 33.1 °F 23.4 °F 8.1 °F 35% 30.34 in 10.0 mi North 13.8 mph 23.0 mph N/A   Clear
4:35 PM 32.9 °F 22.4 °F 9.5 °F 38% 30.34 in 10.0 mi North 16.1 mph 21.9 mph N/A   Clear
4:55 PM 32.2 °F 21.8 °F 9.5 °F 39% 30.33 in 10.0 mi North 15.0 mph - N/A   Clear
5:15 PM 32.0 °F 22.5 °F 10.6 °F 41% 30.34 in 10.0 mi North 12.7 mph 20.7 mph N/A   Clear
5:35 PM 31.1 °F 20.9 °F 10.4 °F 42% 30.34 in 10.0 mi North 13.8 mph 21.9 mph N/A   Clear
5:55 PM 30.2 °F 19.3 °F 10.8 °F 44% 30.34 in 10.0 mi North 15.0 mph - N/A   Clear
6:15 PM 29.3 °F 19.1 °F 11.1 °F 47% 30.35 in 10.0 mi North 12.7 mph - N/A   Scattered Clouds
6:35 PM 28.9 °F 17.7 °F 11.1 °F 47% 30.36 in 10.0 mi North 15.0 mph 20.7 mph N/A   Mostly Cloudy
6:55 PM 28.4 °F 17.5 °F 11.7 °F 50% 30.37 in 10.0 mi North 13.8 mph 18.4 mph N/A   Overcast
7:15 PM 27.5 °F 15.9 °F 12.0 °F 52% 30.37 in 10.0 mi North 15.0 mph - N/A   Overcast
7:35 PM 27.0 °F 15.2 °F 11.7 °F 53% 30.38 in 10.0 mi North 15.0 mph - N/A   Overcast
7:55 PM 26.6 °F 15.2 °F 11.3 °F 53% 30.38 in 10.0 mi NNW 13.8 mph - N/A   Overcast
8:15 PM 26.2 °F 14.2 °F 11.5 °F 54% 30.39 in 10.0 mi North 15.0 mph 20.7 mph N/A   Overcast
8:35 PM 25.7 °F 14.0 °F 11.7 °F 55% 30.40 in 10.0 mi North 13.8 mph 17.3 mph N/A   Overcast
8:55 PM 25.5 °F 14.3 °F 11.3 °F 55% 30.40 in 10.0 mi North 12.7 mph 18.4 mph N/A   Mostly Cloudy
9:15 PM 25.5 °F 15.5 °F 12.0 °F 57% 30.41 in 10.0 mi North 10.4 mph - N/A   Overcast
9:35 PM 25.3 °F 13.1 °F 12.7 °F 59% 30.41 in 10.0 mi North 15.0 mph 19.6 mph N/A   Overcast
9:55 PM 25.0 °F 12.6 °F 12.2 °F 58% 30.42 in 10.0 mi North 15.0 mph 20.7 mph N/A   Overcast
10:15 PM 24.8 °F 13.4 °F 12.2 °F 59% 30.43 in 10.0 mi North 12.7 mph - N/A   Overcast
10:35 PM 24.8 °F 13.4 °F 12.4 °F 59% 30.44 in 10.0 mi North 12.7 mph 17.3 mph N/A   Overcast
10:55 PM 24.6 °F 13.8 °F 12.6 °F 60% 30.45 in 10.0 mi NNW 11.5 mph - N/A   Overcast
11:15 PM 24.3 °F 13.3 °F 12.0 °F 60% 30.45 in 10.0 mi North 11.5 mph 20.7 mph N/A   Mostly Cloudy
11:35 PM 23.9 °F 12.9 °F 12.0 °F 61% 30.45 in 10.0 mi North 11.5 mph - N/A   Scattered Clouds
11:55 PM 23.7 °F 14.0 °F 12.9 °F 63% 30.46 in 10.0 mi North 9.2 mph - N/A   Mostly Cloudy